EJU89QR LFBD-LPPR

Flight info

Callsign EJU89QR
Flight time 1h 29m
Altitude 33000
Route VAVIX DCT BTZ DCT URUNA DCT SSN DCT VRA DCT NEA DCT ZMR L155 ADORO DCT INKIT
Aircraft A320/M-SDE3FGHIRWY/LB1

Departure

Time 2026-05-06 13:32
Airport Bordeaux–Mérignac Airport (LFBD)

Arrival

Time 2026-05-06 15:01
Airport Francisco de Sá Carneiro Airport (LPPR)
Time Latitude Longitude Altitude Speed Heading
2026-05-06 12:59 44.82874 -0.70034 169 ft 0 kts 16°
2026-05-06 13:23 44.82872 -0.70035 169 ft 2 kts 16°
2026-05-06 13:23 44.82848 -0.70045 169 ft 4 kts 16°
2026-05-06 13:23 44.82828 -0.70052 169 ft 4 kts 342°
2026-05-06 13:23 44.82814 -0.70031 169 ft 4 kts 286°
2026-05-06 13:24 44.82809 -0.70010 169 ft 1 kts 286°
2026-05-06 13:26 44.82814 -0.70030 169 ft 4 kts 286°
2026-05-06 13:26 44.82825 -0.70086 169 ft 8 kts 286°
2026-05-06 13:26 44.82832 -0.70159 169 ft 8 kts 246°
2026-05-06 13:26 44.82790 -0.70215 170 ft 10 kts 265°
2026-05-06 13:27 44.82809 -0.70319 170 ft 12 kts 285°
2026-05-06 13:27 44.82838 -0.70448 170 ft 15 kts 288°
2026-05-06 13:27 44.82870 -0.70603 170 ft 18 kts 286°
2026-05-06 13:27 44.82907 -0.70779 170 ft 20 kts 287°
2026-05-06 13:28 44.82936 -0.70914 170 ft 7 kts 287°
2026-05-06 13:28 44.82982 -0.70919 169 ft 10 kts 38°
2026-05-06 13:28 44.83041 -0.70835 169 ft 14 kts 45°
2026-05-06 13:28 44.83118 -0.70726 168 ft 18 kts 45°
2026-05-06 13:29 44.83215 -0.70587 167 ft 22 kts 45°
2026-05-06 13:29 44.83331 -0.70422 165 ft 26 kts 45°
2026-05-06 13:29 44.83465 -0.70229 164 ft 25 kts 46°
2026-05-06 13:29 44.83586 -0.70058 162 ft 16 kts 45°
2026-05-06 13:30 44.83657 -0.70005 161 ft 12 kts 350°
2026-05-06 13:30 44.83745 -0.70060 161 ft 16 kts 335°
2026-05-06 13:30 44.83819 -0.70138 161 ft 10 kts 300°
2026-05-06 13:30 44.83792 -0.70218 161 ft 11 kts 220°
2026-05-06 13:31 44.83685 -0.70367 162 ft 50 kts 225°
2026-05-06 13:31 44.83277 -0.70949 169 ft 114 kts 224°
2026-05-06 13:31 44.82598 -0.71925 175 ft 163 kts 226°
2026-05-06 13:31 44.81771 -0.73081 720 ft 166 kts 230°
2026-05-06 13:32 44.80941 -0.74227 1443 ft 167 kts 231°
2026-05-06 13:32 44.80090 -0.75451 1887 ft 185 kts 230°
2026-05-06 13:32 44.79138 -0.76834 2224 ft 208 kts 231°
2026-05-06 13:32 44.78089 -0.78354 2767 ft 226 kts 230°
2026-05-06 13:33 44.76781 -0.79783 3384 ft 255 kts 205°
2026-05-06 13:33 44.74952 -0.80155 4248 ft 276 kts 181°
2026-05-06 13:33 44.73030 -0.79857 5370 ft 281 kts 173°
2026-05-06 13:33 44.71094 -0.79348 6288 ft 285 kts 171°
2026-05-06 13:34 44.69138 -0.78819 7136 ft 288 kts 172°
2026-05-06 13:34 44.67154 -0.78338 7999 ft 291 kts 173°
2026-05-06 13:34 44.65136 -0.77913 8869 ft 295 kts 174°
2026-05-06 13:34 44.63103 -0.77455 9746 ft 298 kts 173°
2026-05-06 13:35 44.61030 -0.76962 10340 ft 311 kts 172°
2026-05-06 13:35 44.58818 -0.76437 10611 ft 334 kts 173°
2026-05-06 13:35 44.56486 -0.75889 11203 ft 344 kts 172°
2026-05-06 13:35 44.54109 -0.75338 12043 ft 348 kts 172°
2026-05-06 13:36 44.51700 -0.74785 12815 ft 353 kts 173°
2026-05-06 13:36 44.49267 -0.74232 13547 ft 356 kts 173°
2026-05-06 13:36 44.46803 -0.73680 14205 ft 360 kts 173°
2026-05-06 13:36 44.44316 -0.73126 14885 ft 364 kts 172°
2026-05-06 13:37 44.41799 -0.72562 15653 ft 369 kts 172°
2026-05-06 13:37 44.39243 -0.71986 16447 ft 375 kts 173°
2026-05-06 13:37 44.36658 -0.71403 17199 ft 378 kts 173°
2026-05-06 13:37 44.34049 -0.70817 17866 ft 381 kts 173°
2026-05-06 13:38 44.31407 -0.70415 18450 ft 383 kts 181°
2026-05-06 13:38 44.28757 -0.70708 18975 ft 383 kts 193°
2026-05-06 13:38 44.26200 -0.71734 19500 ft 383 kts 205°
2026-05-06 13:38 44.23834 -0.73451 20020 ft 383 kts 217°
2026-05-06 13:39 44.21673 -0.75642 20551 ft 385 kts 219°
2026-05-06 13:39 44.19511 -0.77868 21059 ft 389 kts 219°
2026-05-06 13:39 44.17325 -0.80107 21547 ft 392 kts 219°
2026-05-06 13:39 44.15113 -0.82360 22073 ft 395 kts 219°
2026-05-06 13:40 44.12883 -0.84621 22590 ft 399 kts 219°
2026-05-06 13:40 44.10630 -0.86902 23108 ft 402 kts 219°
2026-05-06 13:40 44.08361 -0.89198 23591 ft 405 kts 219°
2026-05-06 13:40 44.06076 -0.91512 23990 ft 408 kts 219°
2026-05-06 13:41 44.03776 -0.93844 24387 ft 411 kts 219°
2026-05-06 13:41 44.01498 -0.96154 24774 ft 413 kts 219°
2026-05-06 13:41 43.99170 -0.98513 25164 ft 416 kts 219°
2026-05-06 13:41 43.96821 -1.00888 25550 ft 419 kts 219°
2026-05-06 13:42 43.94460 -1.03275 25939 ft 422 kts 218°
2026-05-06 13:42 43.92081 -1.05681 26361 ft 425 kts 218°
2026-05-06 13:42 43.89680 -1.08104 26740 ft 427 kts 218°
2026-05-06 13:42 43.87264 -1.10535 27146 ft 431 kts 218°
2026-05-06 13:43 43.84831 -1.12980 27506 ft 434 kts 218°
2026-05-06 13:43 43.82381 -1.15439 27868 ft 436 kts 218°
2026-05-06 13:43 43.79910 -1.17918 28224 ft 439 kts 218°
2026-05-06 13:43 43.77430 -1.20399 28570 ft 442 kts 218°
2026-05-06 13:44 43.74930 -1.22896 28917 ft 444 kts 218°
2026-05-06 13:44 43.72415 -1.25408 29247 ft 447 kts 218°
2026-05-06 13:44 43.69890 -1.27931 29589 ft 450 kts 218°
2026-05-06 13:44 43.67347 -1.30472 29917 ft 452 kts 218°
2026-05-06 13:45 43.64790 -1.33023 30230 ft 455 kts 218°
2026-05-06 13:45 43.59648 -1.38144 30863 ft 456 kts 218°
2026-05-06 13:45 43.57072 -1.40700 31163 ft 457 kts 218°
2026-05-06 13:46 43.54486 -1.43264 31516 ft 457 kts 218°
2026-05-06 13:46 43.51917 -1.45813 32086 ft 453 kts 218°
2026-05-06 13:46 43.49376 -1.48342 32643 ft 448 kts 219°
2026-05-06 13:46 43.47033 -1.51123 32962 ft 442 kts 228°
2026-05-06 13:47 43.45061 -1.54302 33040 ft 430 kts 237°
2026-05-06 13:47 43.43419 -1.57681 33022 ft 421 kts 239°
2026-05-06 13:47 43.40203 -1.64367 33041 ft 418 kts 239°
2026-05-06 13:48 43.36975 -1.71003 33053 ft 417 kts 238°
2026-05-06 13:48 43.33742 -1.77623 33056 ft 417 kts 238°
2026-05-06 13:49 43.30508 -1.84222 33054 ft 416 kts 237°
2026-05-06 13:49 43.27101 -1.90576 33041 ft 417 kts 235°
2026-05-06 13:50 43.23548 -1.96854 33036 ft 417 kts 234°
2026-05-06 13:50 43.20001 -2.03159 33038 ft 417 kts 235°
2026-05-06 13:51 43.16496 -2.09485 33040 ft 417 kts 235°
2026-05-06 13:51 43.12998 -2.15807 33045 ft 417 kts 235°
2026-05-06 13:52 43.09489 -2.22116 33031 ft 416 kts 235°
2026-05-06 13:52 43.05978 -2.28404 33043 ft 416 kts 235°
2026-05-06 13:53 43.02469 -2.34682 33029 ft 415 kts 235°
2026-05-06 13:53 42.98958 -2.40949 33023 ft 415 kts 235°
2026-05-06 13:54 42.95450 -2.47203 33018 ft 414 kts 235°
2026-05-06 13:54 42.91943 -2.53433 33028 ft 414 kts 235°
2026-05-06 13:55 42.88436 -2.59646 33021 ft 413 kts 235°
2026-05-06 13:55 42.84936 -2.65850 33026 ft 412 kts 235°
2026-05-06 13:56 42.81441 -2.72030 33024 ft 411 kts 235°
2026-05-06 13:56 42.77949 -2.78186 33025 ft 410 kts 235°
2026-05-06 13:57 42.74456 -2.84327 33027 ft 410 kts 235°
2026-05-06 13:57 42.70984 -2.90460 33026 ft 409 kts 236°
2026-05-06 13:58 42.67570 -2.96622 33016 ft 408 kts 236°
2026-05-06 13:58 42.64168 -3.02779 33015 ft 407 kts 236°
2026-05-06 13:59 42.60756 -3.08908 33012 ft 407 kts 236°
2026-05-06 13:59 42.57335 -3.15017 33009 ft 406 kts 236°
2026-05-06 14:00 42.53918 -3.21103 33001 ft 406 kts 236°
2026-05-06 14:00 42.50494 -3.27186 33000 ft 405 kts 235°
2026-05-06 14:01 42.47078 -3.33251 33003 ft 405 kts 236°
2026-05-06 14:01 42.43672 -3.39302 32996 ft 404 kts 236°
2026-05-06 14:02 42.40831 -3.44333 33000 ft 404 kts 235°
2026-05-06 14:02 42.37419 -3.50355 32992 ft 403 kts 235°
2026-05-06 14:03 42.34007 -3.56376 32985 ft 403 kts 235°
2026-05-06 14:03 42.30589 -3.62390 32983 ft 403 kts 235°
2026-05-06 14:04 42.27178 -3.68374 32987 ft 403 kts 235°
2026-05-06 14:04 42.23754 -3.74370 32986 ft 403 kts 235°
2026-05-06 14:05 42.20335 -3.80350 32985 ft 403 kts 235°
2026-05-06 14:05 42.16916 -3.86329 32982 ft 403 kts 235°
2026-05-06 14:06 42.13490 -3.92302 32974 ft 403 kts 235°
2026-05-06 14:06 42.10062 -3.98267 32970 ft 403 kts 235°
2026-05-06 14:07 42.06622 -4.04227 32968 ft 403 kts 234°
2026-05-06 14:07 42.03234 -4.10227 32966 ft 401 kts 240°
2026-05-06 14:08 42.00853 -4.16962 32970 ft 399 kts 249°
2026-05-06 14:08 41.98687 -4.23820 32969 ft 399 kts 248°
2026-05-06 14:09 41.96497 -4.30672 32967 ft 399 kts 248°
2026-05-06 14:09 41.94308 -4.37525 32966 ft 399 kts 248°
2026-05-06 14:10 41.92117 -4.44388 32965 ft 400 kts 248°
2026-05-06 14:10 41.89923 -4.51244 32965 ft 400 kts 248°
2026-05-06 14:11 41.87724 -4.58096 32974 ft 400 kts 248°
2026-05-06 14:11 41.85522 -4.64949 32977 ft 400 kts 248°
2026-05-06 14:12 41.83314 -4.71795 32982 ft 400 kts 248°
2026-05-06 14:12 41.81095 -4.78634 32983 ft 400 kts 248°
2026-05-06 14:13 41.78880 -4.85464 32987 ft 400 kts 248°
2026-05-06 14:13 41.76654 -4.92308 32987 ft 400 kts 248°
2026-05-06 14:14 41.74429 -4.99141 32987 ft 400 kts 248°
2026-05-06 14:14 41.72196 -5.05965 32983 ft 400 kts 248°
2026-05-06 14:15 41.69961 -5.12787 32979 ft 400 kts 248°
2026-05-06 14:15 41.67727 -5.19609 32973 ft 400 kts 248°
2026-05-06 14:16 41.65483 -5.26430 32970 ft 400 kts 248°
2026-05-06 14:16 41.63236 -5.33242 32964 ft 400 kts 248°
2026-05-06 14:17 41.60985 -5.40050 32961 ft 401 kts 247°
2026-05-06 14:17 41.58727 -5.46849 32961 ft 400 kts 247°
2026-05-06 14:18 41.56463 -5.53643 32965 ft 400 kts 247°
2026-05-06 14:18 41.54196 -5.60432 32957 ft 400 kts 247°
2026-05-06 14:19 41.52757 -5.67548 32958 ft 398 kts 265°
2026-05-06 14:19 41.52254 -5.74911 32955 ft 398 kts 264°
2026-05-06 14:20 41.51720 -5.82272 32957 ft 399 kts 264°
2026-05-06 14:20 41.51177 -5.89637 32953 ft 399 kts 264°
2026-05-06 14:21 41.50636 -5.97000 32952 ft 399 kts 264°
2026-05-06 14:21 41.50096 -6.04365 32951 ft 399 kts 264°
2026-05-06 14:22 41.49548 -6.11729 32955 ft 399 kts 264°
2026-05-06 14:22 41.48986 -6.19099 32953 ft 399 kts 264°
2026-05-06 14:23 41.48264 -6.26434 32951 ft 399 kts 255°
2026-05-06 14:23 41.46804 -6.33573 32950 ft 399 kts 255°
2026-05-06 14:24 41.45332 -6.40708 32948 ft 399 kts 255°
2026-05-06 14:24 41.43849 -6.47846 32947 ft 400 kts 255°
2026-05-06 14:25 41.42365 -6.54981 32948 ft 400 kts 255°
2026-05-06 14:25 41.40886 -6.62115 32946 ft 400 kts 255°
2026-05-06 14:26 41.39397 -6.69251 32946 ft 400 kts 254°
2026-05-06 14:26 41.37901 -6.76371 32788 ft 399 kts 254°
2026-05-06 14:27 41.37154 -6.79924 32241 ft 397 kts 254°
2026-05-06 14:27 41.36415 -6.83441 31746 ft 393 kts 255°
2026-05-06 14:27 41.35682 -6.86929 31280 ft 389 kts 254°
2026-05-06 14:27 41.34953 -6.90385 30802 ft 386 kts 254°
2026-05-06 14:28 41.34230 -6.93809 30338 ft 383 kts 255°
2026-05-06 14:28 41.33512 -6.97201 29860 ft 380 kts 254°
2026-05-06 14:28 41.32797 -7.00565 29378 ft 376 kts 254°
2026-05-06 14:28 41.32090 -7.03886 28943 ft 370 kts 254°
2026-05-06 14:29 41.31395 -7.07156 28518 ft 366 kts 254°
2026-05-06 14:29 41.30706 -7.10392 28096 ft 361 kts 254°
2026-05-06 14:29 41.30026 -7.13581 27694 ft 356 kts 254°
2026-05-06 14:29 41.29353 -7.16726 27285 ft 352 kts 254°
2026-05-06 14:30 41.28686 -7.19831 26897 ft 347 kts 254°
2026-05-06 14:30 41.28026 -7.22904 26509 ft 344 kts 254°
2026-05-06 14:30 41.27375 -7.25942 26132 ft 341 kts 254°
2026-05-06 14:30 41.26726 -7.28959 25728 ft 338 kts 254°
2026-05-06 14:31 41.26082 -7.31946 25336 ft 335 kts 254°
2026-05-06 14:31 41.25439 -7.34918 24930 ft 333 kts 254°
2026-05-06 14:31 41.24799 -7.37875 24529 ft 332 kts 254°
2026-05-06 14:31 41.24161 -7.40817 24115 ft 331 kts 254°
2026-05-06 14:32 41.23524 -7.43749 23702 ft 330 kts 254°
2026-05-06 14:32 41.22890 -7.46679 23238 ft 329 kts 254°
2026-05-06 14:32 41.22270 -7.49555 22807 ft 327 kts 254°
2026-05-06 14:32 41.21644 -7.52449 22393 ft 325 kts 254°
2026-05-06 14:33 41.21022 -7.55321 21986 ft 323 kts 254°
2026-05-06 14:33 41.20401 -7.58180 21578 ft 321 kts 254°
2026-05-06 14:33 41.19780 -7.61026 21172 ft 320 kts 254°
2026-05-06 14:33 41.19160 -7.63861 20775 ft 320 kts 254°
2026-05-06 14:34 41.18539 -7.66695 20374 ft 319 kts 254°
2026-05-06 14:34 41.17915 -7.69531 19963 ft 319 kts 254°
2026-05-06 14:34 41.17291 -7.72356 19563 ft 319 kts 253°
2026-05-06 14:34 41.16666 -7.75173 19177 ft 319 kts 253°
2026-05-06 14:35 41.16039 -7.78001 18780 ft 319 kts 253°
2026-05-06 14:35 41.15416 -7.80827 18382 ft 320 kts 254°
2026-05-06 14:35 41.14794 -7.83663 17955 ft 320 kts 254°
2026-05-06 14:35 41.14174 -7.86495 17554 ft 319 kts 253°
2026-05-06 14:36 41.13552 -7.89323 17154 ft 318 kts 253°
2026-05-06 14:36 41.12930 -7.92133 16773 ft 317 kts 253°
2026-05-06 14:36 41.12307 -7.94937 16389 ft 316 kts 253°
2026-05-06 14:36 41.11684 -7.97730 16016 ft 316 kts 253°
2026-05-06 14:37 41.11063 -8.00520 15628 ft 316 kts 253°
2026-05-06 14:37 41.10449 -8.03283 15249 ft 315 kts 253°
2026-05-06 14:37 41.09828 -8.06068 14874 ft 315 kts 253°
2026-05-06 14:37 41.09204 -8.08860 14495 ft 315 kts 254°
2026-05-06 14:38 41.08583 -8.11641 14116 ft 315 kts 254°
2026-05-06 14:38 41.07960 -8.14438 13721 ft 315 kts 254°
2026-05-06 14:38 41.07337 -8.17225 13309 ft 314 kts 254°
2026-05-06 14:38 41.06715 -8.19993 12910 ft 313 kts 253°
2026-05-06 14:39 41.06092 -8.22752 12531 ft 311 kts 253°
2026-05-06 14:39 41.05472 -8.25494 12150 ft 311 kts 253°
2026-05-06 14:39 41.04856 -8.28229 11756 ft 309 kts 253°
2026-05-06 14:39 41.04243 -8.30942 11491 ft 304 kts 253°
2026-05-06 14:40 41.03634 -8.33649 11000 ft 308 kts 253°
2026-05-06 14:40 41.03030 -8.36324 10589 ft 307 kts 253°
2026-05-06 14:40 41.02416 -8.39038 10187 ft 307 kts 253°
2026-05-06 14:40 41.01801 -8.41746 9756 ft 307 kts 253°
2026-05-06 14:41 41.01193 -8.44427 9337 ft 307 kts 253°
2026-05-06 14:41 41.00579 -8.47131 8889 ft 307 kts 253°
2026-05-06 14:41 41.00052 -8.49863 8442 ft 306 kts 257°
2026-05-06 14:41 40.99616 -8.52623 7982 ft 306 kts 259°
2026-05-06 14:42 40.99212 -8.55400 7531 ft 307 kts 259°
2026-05-06 14:42 40.98817 -8.58178 7046 ft 308 kts 259°
2026-05-06 14:42 40.98449 -8.60976 6550 ft 309 kts 265°
2026-05-06 14:42 40.98790 -8.63731 6095 ft 303 kts 296°
2026-05-06 14:43 40.99577 -8.65206 5818 ft 292 kts 318°
2026-05-06 14:43 41.01285 -8.66356 5590 ft 267 kts 353°
2026-05-06 14:43 41.03027 -8.66032 5291 ft 248 kts 28°
2026-05-06 14:43 41.04426 -8.64802 4916 ft 237 kts 33°
2026-05-06 14:44 41.05913 -8.63939 4566 ft 231 kts 11°
2026-05-06 14:44 41.07488 -8.63845 4226 ft 225 kts 356°
2026-05-06 14:44 41.09026 -8.64081 3892 ft 220 kts 351°
2026-05-06 14:45 41.12004 -8.64769 3224 ft 217 kts 349°
2026-05-06 14:45 41.13498 -8.65146 2824 ft 221 kts 349°
2026-05-06 14:45 41.15012 -8.65531 2428 ft 220 kts 348°
2026-05-06 14:45 41.16490 -8.65905 2048 ft 210 kts 347°
2026-05-06 14:46 41.17882 -8.66270 1670 ft 198 kts 346°
2026-05-06 14:46 41.19200 -8.66621 1332 ft 189 kts 348°
2026-05-06 14:46 41.20445 -8.66952 1016 ft 177 kts 346°
2026-05-06 14:46 41.21614 -8.67267 681 ft 166 kts 345°
2026-05-06 14:47 41.22714 -8.67587 802 ft 161 kts 345°
2026-05-06 14:47 41.23889 -8.67970 1441 ft 186 kts 343°
2026-05-06 14:47 41.25204 -8.68426 2187 ft 200 kts 345°
2026-05-06 14:47 41.26589 -8.68914 2986 ft 210 kts 344°
2026-05-06 14:48 41.27965 -8.69592 3718 ft 218 kts 327°
2026-05-06 14:48 41.28992 -8.71059 3939 ft 220 kts 295°
2026-05-06 14:48 41.29236 -8.73051 4001 ft 222 kts 262°
2026-05-06 14:48 41.28599 -8.74883 3999 ft 223 kts 226°
2026-05-06 14:49 41.27286 -8.75940 4007 ft 224 kts 196°
2026-05-06 14:49 41.25760 -8.76393 4008 ft 225 kts 190°
2026-05-06 14:49 41.24211 -8.76744 4009 ft 226 kts 189°
2026-05-06 14:49 41.22660 -8.77079 4011 ft 226 kts 189°
2026-05-06 14:50 41.21110 -8.77412 4009 ft 226 kts 189°
2026-05-06 14:50 41.19559 -8.77744 4007 ft 226 kts 189°
2026-05-06 14:50 41.18003 -8.78075 4010 ft 226 kts 189°
2026-05-06 14:50 41.16447 -8.78405 4009 ft 226 kts 189°
2026-05-06 14:51 41.14889 -8.78663 4009 ft 226 kts 180°
2026-05-06 14:51 41.13321 -8.78559 4007 ft 226 kts 175°
2026-05-06 14:51 41.11756 -8.78370 4008 ft 226 kts 174°
2026-05-06 14:51 41.10190 -8.78168 4010 ft 226 kts 174°
2026-05-06 14:52 41.08630 -8.77967 4007 ft 226 kts 174°
2026-05-06 14:52 41.07061 -8.77763 4007 ft 226 kts 174°
2026-05-06 14:52 41.05497 -8.77561 4012 ft 226 kts 174°
2026-05-06 14:52 41.03928 -8.77359 4010 ft 226 kts 174°
2026-05-06 14:53 41.02364 -8.77158 4007 ft 226 kts 174°
2026-05-06 14:53 41.00799 -8.76957 4007 ft 226 kts 174°
2026-05-06 14:53 40.99246 -8.76673 4008 ft 225 kts 161°
2026-05-06 14:53 40.97947 -8.75570 4009 ft 224 kts 134°
2026-05-06 14:54 40.96889 -8.74051 4011 ft 224 kts 130°
2026-05-06 14:54 40.95880 -8.72476 4011 ft 224 kts 126°
2026-05-06 14:54 40.95250 -8.70626 4009 ft 222 kts 97°
2026-05-06 14:54 40.95346 -8.68618 4013 ft 219 kts 70°
2026-05-06 14:55 40.96031 -8.66821 4009 ft 219 kts 59°
2026-05-06 14:55 40.96773 -8.65069 4009 ft 215 kts 59°
2026-05-06 14:55 40.97531 -8.63405 4012 ft 207 kts 49°
2026-05-06 14:55 40.98622 -8.62237 4006 ft 199 kts 24°
2026-05-06 14:56 40.99913 -8.61764 4000 ft 189 kts
2026-05-06 14:56 41.01210 -8.61944 4005 ft 187 kts 347°
2026-05-06 14:56 41.02486 -8.62298 4008 ft 188 kts 348°
2026-05-06 14:56 41.03764 -8.62642 4009 ft 188 kts 348°
2026-05-06 14:57 41.05047 -8.62987 4007 ft 188 kts 348°
2026-05-06 14:57 41.06350 -8.63340 3720 ft 195 kts 348°
2026-05-06 14:57 41.07696 -8.63706 3429 ft 200 kts 348°
2026-05-06 14:57 41.09084 -8.64086 3143 ft 206 kts 347°
2026-05-06 14:58 41.10511 -8.64477 2850 ft 213 kts 347°
2026-05-06 14:58 41.11984 -8.64868 2540 ft 218 kts 348°
2026-05-06 14:58 41.13481 -8.65234 2249 ft 218 kts 348°
2026-05-06 14:58 41.14946 -8.65583 1934 ft 208 kts 348°
2026-05-06 14:59 41.16319 -8.65912 1672 ft 192 kts 347°
2026-05-06 14:59 41.17585 -8.66233 1435 ft 178 kts 347°
2026-05-06 14:59 41.18738 -8.66535 1210 ft 161 kts 348°
2026-05-06 14:59 41.19773 -8.66806 1004 ft 144 kts 346°
2026-05-06 15:00 41.20719 -8.67052 793 ft 135 kts 346°
2026-05-06 15:00 41.21627 -8.67295 620 ft 134 kts 345°
2026-05-06 15:00 41.22536 -8.67530 438 ft 132 kts 346°
2026-05-06 15:00 41.23424 -8.67764 264 ft 128 kts 345°
2026-05-06 15:01 41.24224 -8.67990 214 ft 96 kts 347°
2026-05-06 15:01 41.24705 -8.68112 198 ft 53 kts 347°
2026-05-06 15:01 41.24958 -8.68171 190 ft 27 kts 352°
2026-05-06 15:01 41.25103 -8.68170 181 ft 18 kts
2026-05-06 15:02 41.25228 -8.68132 178 ft 20 kts 21°
2026-05-06 15:02 41.25301 -8.68079 175 ft 10 kts 67°
2026-05-06 15:02 41.25274 -8.68020 177 ft 5 kts 155°
2026-05-06 15:02 41.25254 -8.68014 178 ft 2 kts 166°
2026-05-06 15:03 41.25214 -8.68002 181 ft 11 kts 168°
2026-05-06 15:03 41.25109 -8.67971 198 ft 18 kts 165°
2026-05-06 15:03 41.24973 -8.67939 192 ft 19 kts 168°
2026-05-06 15:03 41.24857 -8.67890 200 ft 16 kts 147°
2026-05-06 15:04 41.24778 -8.67837 207 ft 12 kts 158°
2026-05-06 15:04 41.24692 -8.67809 217 ft 14 kts 168°
2026-05-06 15:04 41.24593 -8.67783 216 ft 17 kts 170°
2026-05-06 15:04 41.24464 -8.67746 218 ft 21 kts 171°
2026-05-06 15:05 41.24328 -8.67708 226 ft 17 kts 166°
2026-05-06 15:05 41.24252 -8.67620 233 ft 15 kts 126°
2026-05-06 15:05 41.24179 -8.67502 237 ft 19 kts 139°
2026-05-06 15:05 41.24085 -8.67438 237 ft 10 kts 158°
2026-05-06 15:06 41.24026 -8.67418 237 ft 0 kts 174°
2026-05-06 15:06 41.24007 -8.67416 237 ft 5 kts 177°
2026-05-06 15:06 41.23962 -8.67444 237 ft 9 kts 213°
2026-05-06 15:07 41.23893 -8.67492 237 ft 12 kts 188°
2026-05-06 15:07 41.23814 -8.67473 237 ft 11 kts 168°
2026-05-06 15:07 41.23756 -8.67455 237 ft 7 kts 159°
2026-05-06 15:07 41.23724 -8.67409 237 ft 7 kts 122°
2026-05-06 15:08 41.23715 -8.67386 237 ft 2 kts 109°
2026-05-06 15:08 41.23721 -8.67375 237 ft 2 kts 47°
2026-05-06 15:08 41.23731 -8.67360 237 ft 3 kts 47°
2026-05-06 15:08 41.23750 -8.67332 237 ft 5 kts 48°
2026-05-06 15:09 41.23772 -8.67298 237 ft 2 kts 49°
2026-05-06 15:09 41.23775 -8.67293 237 ft 0 kts 49°